Location: Unspecified
(0.0000°N, 0.0000°E)
Time: 03:30:21
(UTC+00:00)

Courier 1B Rocket - Pass Details

Date: 21 December 2018
Orbit: 920 x 1202 km, 28.2° (Epoch: 18 March)

Event Time Altitude Azimuth Distance (km) Brightness Sun altitude
Rises 13:24:34 0° 313° (NW) 3,820 8.1 58.5°
Reaches altitude 10° 13:27:22 10° 320° (NW) 2,910 7.6 58.1°
Maximum altitude 13:34:09 43° 30° (NNE) 1,532 6.3 56.9°
Drops below altitude 10° 13:41:20 10° 99° (E) 3,087 7.5 55.7°
Sets 13:44:23 0° 106° (ESE) 4,073 8.1 55.1°
